Probability
0 0 0 0 0 0 0 0 0 0 1 3 6 9 14 21 24 20 16 13 10 8 6 4 1 0 0 0 0 0 0 0 0 0 0 0 0 0 0 0 0 0 0
0 0 0 0 0 0 0 0 0 0 0 1 4 7 13 19 23 21 17 13 9 7 7 4 1 0 0 0 0 0 0 0 0 0 0 0 0 0 0 0 0 0 0
0 0 0 0 0 0 0 0 0 0 0 0 1 4 8 14 18 19 17 13 9 9 8 6 3 1 0 0 0 0 0 0 0 0 0 0 0 0 0 0 0 0 0
0 0 0 0 0 0 0 0 0 0 0 0 0 1 3 7 10 12 11 9 9 9 8 6 4 2 0 0 0 0 0 0 0 0 0 0 0 0 0 0 0 0 0
0 0 0 0 0 0 0 0 0 0 0 0 0 0 0 2 3 3 3 4 5 5 5 4 3 1 0 0 0 0 0 0 0 0 0 0 0 0 0 0 0 0 0
0 0 0 0 0 0 0 0 0 0 0 0 0 0 0 0 1 0 0 1 1 1 1 1 1 0 0 0 0 0 0 0 0 0 0 0 0 0 0 0 0 0 0
0 0 0 0 0 0 0 0 0 0 0 0 0 0 0 0 0 0 0 0 0 0 0 0 0 0 0 0 0 0 0 0 0 0 0 0 0 0 0 0 0 0 0
0 0 0 0 0 0 0 0 0 0 0 0 0 0 0 0 0 0 0 0 0 0 0 0 0 0 0 0 0 0 0 0 0 0 0 0 0 0 0 0 0 0 0
0 0 0 0 0 0 0 0 0 0 0 0 0 0 0 0 0 0 0 0 0 0 0 0 0 0 0 0 0 0 0 0 0 0 0 0 0 0 0 0 0 0 0
0 0 0 0 0 0 0 0 0 0 0 0 0 0 0 0 0 0 0 0 0 0 0 0 0 0 0 0 0 0 0 0 0 0 0 0 0 0 0 0 0 0 0
0 0 0 0 0 0 0 0 0 0 0 0 0 0 0 0 0 0 0 0 0 0 0 0 0 0 0 0 0 0 0 0 0 0 0 0 0 0 0 0 0 0 0
0 0 0 0 0 0 0 0 0 0 0 0 0 0 0 0 0 0 0 0 0 0 0 0 0 0 0 0 0 0 0 0 0 0 0 0 0 0 0 0 0 0 0
0 0 0 0 0 0 0 0 0 0 0 0 0 0 0 0 0 0 0 0 0 0 0 0 0 0 0 0 0 0 0 0 0 0 0 0 0 0 0 0 0 0 0
0 0 0 0 0 0 0 0 0 0 0 0 0 0 0 0 0 0 0 0 0 0 0 0 0 0 0 0 0 0 0 0 0 0 0 0 0 0 0 0 0 0 0
0 0 0 0 0 0 0 0 0 0 0 0 0 0 0 0 0 0 0 0 0 0 0 0 0 0 0 0 0 0 0 0 0 0 0 0 0 0 0 0 0 0 0
0 0 0 0 0 0 0 0 0 0 0 0 0 0 0 0 0 0 0 0 0 0 0 0 0 0 0 0 0 0 0 0 0 0 0 0 0 0 0 0 0 0 0
0 0 0 0 0 0 0 0 0 0 0 0 0 0 0 0 0 0 0 0 0 0 0 0 0 0 0 0 0 0 0 0 0 0 0 0 0 0 0 0 0 0 0
0 0 0 0 0 0 0 0 0 0 0 0 0 0 0 0 0 0 0 0 0 0 0 0 0 0 0 0 0 0 0 0 0 0 0 0 0 0 0 0 0 0 0
0 0 0 0 0 0 0 0 0 0 0 0 0 0 0 0 0 0 0 0 0 0 0 0 0 0 0 0 0 0 0 0 0 0 0 0 0 0 0 0 0 0 0
0 0 0 0 0 0 0 0 0 0 0 0 0 0 0 0 0 0 0 0 0 0 0 0 0 0 0 0 0 0 0 0 0 0 0 0 0 0 0 0 0 0 0
0 0 0 0 0 0 0 0 0 0 0 0 0 0 0 0 0 0 0 0 0 0 0 0 0 0 0 0 0 0 0 0 0 0 0 0 0 0 0 0 0 0 0
0 0 0 0 0 0 0 0 0 0 0 0 0 0 0 0 0 0 0 0 0 0 0 0 0 0 0 0 0 0 0 0 0 0 0 0 0 0 0 0 0 0 0
0 0 0 0 0 0 0 0 0 0 0 0 0 0 0 0 0 0 0 0 0 0 0 0 0 0 0 0 0 0 0 0 0 0 0 0 0 0 0 0 0 0 0
0 0 0 0 0 0 0 0 0 0 0 0 0 0 0 0 0 0 0 0 0 0 0 0 0 0 0 0 0 0 0 0 0 0 0 0 0 0 0 0 0 0 0
0 0 0 0 0 0 0 0 0 0 0 0 0 0 0 0 0 0 0 0 0 0 0 0 0 0 0 0 0 0 0 0 0 0 0 0 0 0 0 0 0 0 0
0 0 0 0 0 0 0 0 0 0 0 0 0 0 0 0 0 0 0 0 0 0 0 0 0 0 0 0 0 0 0 0 0 0 0 0 0 0 0 0 0 0 0
Wind_Speed
9 9 9 9 9 10 10 9 9 9 8 5 4 3 4 4 5 6 7 7 7 7 7 5 4 4 5 5 5 3 3 2 2 3 1 1 1 2 3 3 3 4 4
12 12 11 10 10 10 10 9 9 9 8 6 5 4 4 3 4 4 6 7 7 7 6 6 4 4 4 3 4 3 3 2 3 3 3 1 2 2 1 2 3 4 3
13 13 12 10 10 10 10 9 10 9 9 9 6 5 3 2 2 4 4 5 7 7 6 7 5 5 4 4 4 4 4 3 2 2 4 4 4 2 2 1 2 2 3
12 11 11 11 11 10 9 9 9 8 9 8 7 7 4 3 3 3 3 4 5 6 7 7 8 7 6 6 6 5 3 3 3 1 1 1 3 3 1 1 1 1 3
12 12 11 10 9 9 8 8 8 8 8 8 8 7 5 3 2 1 2 3 3 4 6 7 7 7 6 7 7 6 6 4 4 3 2 1 1 1 2 1 1 1 1
12 11 10 9 9 9 8 7 8 8 8 8 8 8 7 5 3 2 1 1 1 2 3 4 5 5 5 6 7 7 7 6 5 4 3 3 3 3 3 3 2 1 2
12 11 12 11 11 11 9 8 8 8 8 8 8 7 7 6 5 4 2 2 2 1 2 2 3 3 4 5 5 6 6 7 6 6 4 4 3 3 3 3 2 1 1
12 12 11 10 10 10 10 9 8 8 8 8 8 7 7 5 4 5 4 3 2 2 2 2 2 2 3 3 4 3 4 4 5 6 5 3 3 3 3 3 3 2 1
12 13 12 10 10 10 10 9 9 8 8 8 8 7 7 6 5 5 4 3 3 2 3 3 3 2 3 3 3 2 3 3 3 3 4 3 3 3 3 3 3 4 3
11 12 11 10 10 9 8 9 9 8 8 8 7 6 7 6 5 5 5 4 4 3 3 3 3 3 3 3 3 2 2 3 2 2 3 3 2 3 3 3 2 3 4
10 9 9 9 8 9 9 9 9 9 9 9 8 8 8 7 7 6 6 4 4 3 3 3 3 3 3 2 2 2 2 3 2 2 2 2 3 3 3 3 3 3 3
8 7 8 8 8 9 9 9 9 9 9 8 8 8 8 8 8 8 7 6 5 4 3 3 3 3 3 2 2 2 2 2 1 1 1 2 2 3 3 3 3 3 3
8 7 7 7 7 7 8 8 8 8 8 8 8 9 9 9 9 9 8 8 7 7 6 6 5 4 4 3 2 1 1 1 2 2 3 3 3 3 2 3 3 3 3
6 6 6 6 6 6 6 7 7 7 7 7 8 8 8 8 8 8 8 8 8 8 8 7 6 5 4 4 3 2 1 0 1 2 3 4 4 4 4 3 3 3 3
7 6 6 5 5 6 6 6 6 7 6 7 7 7 7 7 7 8 8 8 8 9 8 8 8 6 5 5 4 2 1 1 1 1 1 3 4 5 5 3 4 4 3
7 7 6 6 5 5 5 5 5 6 5 6 6 6 6 7 7 7 7 8 8 8 8 9 8 8 7 10 9 4 2 2 2 2 1 1 2 4 5 6 7 6 5
6 6 6 5 5 4 4 4 4 4 5 6 6 6 6 6 6 6 7 7 7 7 8 8 8 8 10 14 11 9 4 3 3 2 2 1 2 4 4 5 7 5 5
5 6 6 6 4 3 3 2 3 4 4 5 5 6 6 6 6 6 6 6 5 6 6 7 8 8 11 16 13 10 5 4 4 3 2 1 2 3 5 5 5 5 4
4 4 4 4 4 4 3 2 3 4 4 4 5 5 5 5 6 6 5 5 5 6 6 6 8 8 10 15 14 10 4 4 5 5 5 4 3 4 6 6 6 5 4
3 4 5 4 4 4 3 2 3 3 3 3 3 4 5 5 5 5 4 4 4 5 5 6 6 7 8 14 15 11 3 4 4 4 5 6 5 4 5 5 6 6 4
4 4 5 4 5 5 2 2 3 3 2 2 3 4 5 5 5 4 4 4 4 5 6 6 6 7 9 12 14 12 4 3 3 3 3 4 6 5 5 5 3 5 6
4 4 5 5 5 5 3 3 3 2 1 3 4 5 5 4 4 5 5 5 5 6 6 6 6 6 7 9 12 13 10 6 3 3 3 3 5 7 6 5 6 10 8
3 3 4 4 5 5 4 4 4 1 2 4 4 4 5 5 4 4 5 5 5 5 5 5 6 6 6 8 14 13 12 9 4 3 4 6 8 7 6 8 9 7 5
2 3 3 4 5 5 5 4 3 1 3 4 3 3 3 4 4 4 4 4 4 5 5 5 6 6 6 7 7 6 6 7 5 4 6 9 10 8 7 7 6 4 4
2 2 2 3 4 5 5 5 3 2 3 3 3 3 2 2 2 2 2 2 2 2 3 3 3 5 6 8 10 7 5 4 4 3 4 5 5 5 5 5 5 4 4
1 2 2 2 3 4 5 5 3 1 3 2 2 2 1 1 1 1 2 2 1 3 5 5 4 3 5 8 11 12 13 12 9 6 5 6 6 6 5 5 5 5 4
Wind_Direction
350 351 353 352 349 351 350 345 346 345 344 336 319 279 246 229 216 210 203 196 193 193 194 204 198 194 206 210 192 173 181 179 142 117 115 298 255 231 233 223 221 226 224
349 348 348 349 351 347 345 342 343 341 342 332 312 285 276 249 223 210 197 188 183 184 191 196 193 188 196 197 183 175 167 167 160 146 136 222 312 278 237 229 222 224 210
345 340 342 342 343 344 343 340 337 338 339 334 323 308 290 273 219 203 201 192 186 181 178 179 176 177 182 189 184 185 178 175 184 170 152 161 213 258 293 264 240 219 209
341 339 340 339 338 336 334 333 332 336 340 340 338 329 308 284 266 245 208 187 186 176 174 172 170 172 177 183 187 184 183 173 184 188 171 154 155 162 253 310 303 257 222
337 335 335 333 331 331 331 331 333 338 341 344 343 338 327 305 299 287 211 188 180 176 172 172 168 173 180 185 186 185 189 189 190 179 161 145 125 137 157 228 293 322 275
334 332 333 335 333 335 335 337 340 341 344 347 348 349 346 347 356 5 59 101 115 128 151 167 164 173 184 189 192 190 191 195 195 190 179 172 174 183 174 193 216 255 291
341 339 340 343 342 338 339 344 346 344 345 350 353 353 354 5 18 17 41 67 72 80 125 146 160 175 185 190 192 193 196 195 194 195 198 194 186 166 163 170 182 218 280
345 345 345 345 342 344 348 350 349 346 348 354 354 358 3 11 17 23 32 42 47 53 74 110 135 147 157 170 176 182 185 181 187 191 182 180 184 172 168 165 155 168 260
346 347 349 351 350 354 356 355 355 355 355 357 357 3 6 13 18 22 32 37 38 51 68 84 93 105 121 129 137 145 158 157 172 180 180 180 182 180 178 166 164 164 190
343 346 350 352 354 359 357 1 4 1 3 7 9 10 9 12 16 24 27 32 37 47 62 76 86 88 93 108 119 127 128 133 142 156 169 177 177 176 175 180 181 170 166
336 339 341 344 350 359 5 9 10 10 12 11 12 16 14 15 22 27 24 23 33 45 57 65 75 82 89 100 109 120 126 122 129 142 160 190 184 175 173 172 169 168 159
332 335 338 345 356 1 2 6 8 10 10 9 14 18 17 20 24 24 22 25 32 36 46 60 68 64 64 70 87 102 106 124 155 176 177 212 194 183 174 170 172 170 171
339 343 346 350 356 357 357 1 4 5 6 10 16 20 20 22 23 24 25 31 33 35 39 47 50 47 47 49 50 85 114 156 180 195 201 202 185 190 179 175 169 165 164
338 343 344 345 348 350 354 359 359 1 6 12 20 22 19 20 21 25 30 33 36 39 38 38 37 34 37 36 25 39 54 103 219 211 203 196 189 190 181 173 165 151 142
341 342 340 339 342 348 351 355 359 1 5 16 20 14 13 19 24 27 28 31 35 38 34 36 31 24 26 24 17 7 8 339 297 268 216 208 201 191 176 165 160 148 138
334 337 337 339 340 344 344 351 356 357 6 17 15 11 17 22 23 25 28 31 30 29 33 30 26 25 22 22 29 26 14 6 345 327 323 263 202 188 173 164 158 154 149
322 330 328 324 321 325 331 340 342 356 15 18 15 15 20 24 20 26 31 28 25 28 31 25 22 18 13 24 28 33 32 26 17 355 337 331 106 126 123 128 121 121 137
323 324 322 320 316 316 329 337 356 11 21 21 18 16 21 24 23 31 31 23 22 26 25 23 19 16 14 21 26 31 32 34 32 25 16 35 72 104 126 117 104 89 77
305 303 307 306 312 319 328 357 5 11 24 24 22 20 25 30 30 32 26 19 28 30 25 19 19 17 8 15 23 28 19 30 28 27 36 49 61 90 122 122 117 103 82
329 331 333 338 344 334 338 13 359 6 13 19 34 38 41 43 37 33 29 24 32 27 19 20 17 15 9 11 19 23 21 23 18 21 24 34 45 72 115 127 131 130 124
348 354 358 358 343 337 360 12 359 349 353 59 65 55 49 51 43 38 32 30 29 27 20 14 8 11 10 9 17 22 24 16 19 23 15 11 34 64 94 115 127 140 132
355 360 2 355 349 359 18 11 351 331 68 91 80 65 51 48 47 47 38 31 27 29 20 12 8 5 3 7 12 22 29 31 32 22 6 8 47 70 83 98 118 122 117
356 356 359 357 358 3 12 3 333 344 104 100 92 78 66 53 47 50 44 35 30 30 21 14 8 359 358 4 13 18 24 29 36 30 43 56 62 66 66 83 103 108 110
347 350 360 3 352 348 356 348 334 48 114 114 112 96 80 60 45 45 46 45 34 28 20 13 5 357 358 3 2 2 8 18 30 38 54 63 65 64 64 68 71 79 100
326 344 350 341 335 340 347 349 356 75 111 121 127 115 99 85 53 41 36 41 23 12 7 351 347 353 358 359 12 21 16 15 28 46 49 49 51 57 60 63 65 68 80
293 328 336 333 333 341 343 345 351 62 134 135 147 154 151 136 88 10 347 335 332 10 28 24 22 355 8 16 27 33 34 37 47 60 56 53 52 55 59 67 68 63 70